RH
51 50 48 46 45 44 42 43 45 45 48 51 53 53 48 42 40 37 32 28 27 30 32 31 30 31 31 29 27 26 24 22 22 28 31 29 27 29 31 33 31 30
51 50 47 45 46 47 49 49 47 47 53 58 58 56 48 42 40 35 29 27 26 27 29 29 31 31 28 25 23 23 21 20 20 24 29 29 27 28 29 29 27 26
54 52 48 46 47 51 54 53 50 51 57 60 61 58 49 42 38 31 27 26 26 26 26 26 29 28 26 24 23 21 20 19 19 21 24 25 25 25 25 24 24 25
55 52 50 50 51 55 58 56 54 56 61 60 59 57 51 43 36 29 26 24 26 28 25 24 26 26 27 27 26 25 24 23 23 22 22 23 22 22 20 20 20 22
55 52 52 54 57 60 60 58 58 61 63 59 56 55 50 41 33 29 27 26 27 30 29 27 29 30 32 33 33 33 33 32 31 30 29 29 28 27 25 24 21 20
58 54 55 56 60 61 60 60 62 64 63 57 54 53 46 37 31 28 30 31 32 33 32 32 34 37 39 39 39 38 36 36 37 37 37 37 37 36 35 34 32 29
64 62 61 60 61 60 58 59 63 65 61 55 54 51 42 33 29 26 29 34 35 36 36 36 38 41 42 40 38 37 36 37 38 39 40 42 42 40 39 38 38 38
71 70 67 65 64 61 58 60 63 61 55 52 52 48 39 34 30 27 29 32 34 37 38 39 39 39 39 38 37 38 39 40 41 42 44 46 47 45 44 43 42 43
75 75 73 71 69 64 62 65 62 53 48 49 51 47 42 38 36 32 30 30 31 32 33 34 35 35 36 37 37 39 40 41 41 43 45 47 49 51 53 53 52 51
77 79 79 77 75 72 68 65 57 47 45 49 51 48 44 43 42 38 34 33 32 30 28 26 28 29 31 34 36 38 41 43 43 45 47 49 52 57 59 59 57 55
81 83 84 81 80 76 68 60 53 50 49 49 51 49 46 49 50 43 38 39 39 37 34 30 27 27 28 30 33 36 40 44 47 50 52 53 55 57 55 53 51 50
85 86 85 82 79 74 65 59 56 55 53 51 53 53 50 53 55 47 40 42 43 43 43 39 36 35 35 35 37 40 43 46 48 50 51 51 51 51 51 50 49 49
86 88 85 79 74 68 63 60 59 58 55 52 52 52 52 55 56 51 44 42 43 43 43 43 42 42 43 44 46 49 52 53 53 54 55 54 54 55 54 54 54 55
81 82 80 76 71 67 64 64 63 62 60 57 55 53 52 54 56 52 47 44 44 44 42 43 45 45 48 51 54 57 59 59 60 61 61 62 63 64 64 63 63 63
74 74 75 76 73 70 68 65 65 65 62 60 61 58 55 56 57 55 52 51 50 49 47 46 46 47 51 57 60 60 59 60 63 64 65 65 65 65 65 65 67 68
74 74 76 78 78 76 73 68 64 64 61 58 58 58 56 57 58 57 55 54 54 53 52 50 49 48 51 56 58 57 57 59 62 62 63 64 63 61 60 60 60 60
74 75 75 75 75 75 74 70 63 59 56 52 51 51 50 50 52 52 52 52 52 52 53 53 52 51 51 52 53 54 55 56 57 56 56 57 58 56 56 56 56 55
73 78 82 78 77 78 78 73 64 56 52 49 46 46 44 44 45 46 46 46 46 46 47 49 50 52 53 53 53 53 54 54 53 52 50 51 51 51 51 52 53 53
72 80 83 78 79 83 78 68 61 57 55 52 49 48 47 46 45 45 44 44 43 43 43 45 46 49 52 53 53 54 54 52 51 51 51 49 47 46 47 48 49 51
67 69 69 67 69 71 65 57 55 57 57 55 53 52 52 51 50 48 47 46 44 43 43 43 44 47 49 51 52 54 56 53 51 51 49 47 43 42 42 45 46 49
60 59 60 60 60 60 57 54 53 53 53 53 52 52 52 52 50 49 47 45 44 43 42 43 45 48 49 50 50 52 52 50 48 47 46 44 41 40 42 43 42 46
60 58 55 54 54 54 54 55 57 55 53 51 51 51 51 50 49 46 44 43 42 41 41 42 43 45 46 46 47 48 48 46 46 46 46 46 45 43 44 44 43 46
64 62 60 57 56 55 55 57 61 63 61 57 55 54 53 51 49 46 42 41 40 40 40 40 40 42 44 45 47 49 49 48 48 48 49 49 48 46 46 47 49 54
70 70 70 68 65 63 63 62 63 65 65 63 61 59 57 56 55 54 50 46 43 41 41 41 40 41 41 42 44 48 50 51 50 50 50 49 45 44 46 48 53 60
75 76 77 76 73 69 67 67 66 67 66 65 64 63 62 63 63 62 59 55 50 47 44 42 40 39 38 39 42 45 48 48 48 49 49 48 46 45 45 47 52 60
76 75 75 76 76 74 70 69 69 68 67 66 65 63 61 61 62 61 58 56 53 51 47 43 40 38 38 38 40 43 44 44 44 47 47 45 44 44 45 46 52 58